Regional Weather Roundup
Issued by NWS

Home | Current Version | Previous Version | Text Only | Print | Product List | Glossary Off
Versions: 1 2 3 4 5 6 7 8 9 10 11 12 13 14 15 16 17 18 19 20 21 22 23 24 25 26 27 28 29 30 31 32 33 34 35 36 37 38 39 40 41 42 43 44 45 46 47 48 49 50

000
ASUS43 KIND 222309
RWRIN

WEATHER ROUNDUP FOR INDIANA
NATIONAL WEATHER SERVICE INDIANAPOLIS IN
700 PM EDT TUE JUL 22 2014

NOTE: "FAIR" INDICATES FEW OR NO CLOUDS BELOW 12,000 FEET WITH NO
SIGNIFICANT WEATHER AND/OR OBSTRUCTIONS TO VISIBILITY.

* - STATION DOES NOT REPORT WEATHER SUCH AS PRECIPITATION OR FOG.

+ - STATION NOT QUALITY CONTROLLED BY THE NATIONAL WEATHER SERVICE.
    USE DATA WITH CAUTION...ESPECIALLY DEWPOINT AND RELATIVE
    HUMIDITY OBSERVATIONS.

INZ001>003-010>013-019-020-230000-
NORTHWEST INDIANA

CITY           SKY/WX    TMP DP  RH WIND       PRES   REMARKS
GARY /AIRPORT/ MOSUNNY   86  72  62 S10G23    29.96F
KNOX *+        MOSUNNY   85  67  56 SW12      30.00R
LA PORTE +     PTSUNNY   82  69  64 SW10      30.00S
MICHIGAN CITY+ PTSUNNY   82  68  61 S6        29.98F
MONTICELLO +   SUNNY     83  71  66 SW9       29.99R
RENSSELAER +   SUNNY     82  73  74 SW9       30.02R
VALPARAISO     MOSUNNY   85  71  63 SW16G22   29.99R

$$

LMZ046-743>745-230000-
SOUTHERN LAKE MICHIGAN

STATION/POSITION TIME  TEMP WIND        PRES
                       AIR  DIR/SP/G
                 (UTC) (F)  (DEG/KT/KT) (MB)
BURNS HARBOR     2300   85  220/ 16/ 21 1014.6F
MICHIGAN CITY    2300   84  180/ 14/ 18   N/A

$$

INZ004-005-014>016-021>024-230000-
NORTH CENTRAL INDIANA

CITY           SKY/WX    TMP DP  RH WIND       PRES   REMARKS
ELKHART        SUNNY     86  64  48 SW14      29.99R
GOSHEN         SUNNY     87  69  54 S13       29.97F
LOGANSPORT +   MOSUNNY   82  66  57 SW10      30.00F
PERU/GRISSOM   SUNNY     86  71  61 SW13      30.00F
ROCHESTER +    SUNNY     88  68  51 SW8       30.01F
SOUTH BEND     SUNNY     87  68  52 SW12G22   30.00R
WARSAW +       SUNNY     86  68  54 SW7       29.99F

$$

INZ006>009-017-018-025>027-230000-
NORTHEAST INDIANA

CITY           SKY/WX    TMP DP  RH WIND       PRES   REMARKS
ANGOLA *+      SUNNY     86  68  54 SW13      29.98F
AUBURN +       SUNNY     88  63  42 S8        30.00F
FORT WAYNE     MOSUNNY   87  65  47 SW13      30.01S
HUNTINGTON +   SUNNY     85  66  53 W9        30.00S

$$

INZ028-029-035-036-043>045-051>053-230000-
WEST CENTRAL INDIANA

CITY           SKY/WX    TMP DP  RH WIND       PRES   REMARKS
GREENCASTLE +  SUNNY     82  70  65 S5        30.03F
LAFAYETTE      SUNNY     84  70  62 SW8       30.00S
TERRE HAUTE    SUNNY     86  70  58 SW10      30.02S

$$

INZ030>032-037>040-046>048-054>057-064-065-230000-
CENTRAL INDIANA

CITY           SKY/WX    TMP DP  RH WIND       PRES   REMARKS
CP ATTERBURY + SUNNY     86  64  48 SW7       30.03F
COLUMBUS       SUNNY     86  64  48 W6        30.03F
INDIANAPOLIS   MOSUNNY   84  67  56 SW12      30.02F
-EAGLE CREEK   SUNNY     85  66  53 S6        30.01F
KOKOMO *+      SUNNY     86  70  58 SW9G16    30.01S
MARION +       SUNNY     84  65  52 SW7       30.01F
MT COMFORT *+  SUNNY     86  66  51 SW8       30.03F
SHELBYVILLE    SUNNY     87  67  51 SW9       30.03S
ZIONSVILLE +   SUNNY     85  65  49 SW9       30.03S

$$

INZ033-034-041-042-049-050-058-059-230000-
EAST CENTRAL INDIANA

CITY           SKY/WX    TMP DP  RH WIND       PRES   REMARKS
MUNCIE         SUNNY     87  65  47 SW8       30.02F

$$

INZ060-061-067>069-081>083-085>088-230000-
SOUTHWEST INDIANA

CITY           SKY/WX    TMP DP  RH WIND       PRES   REMARKS
EVANSVILLE     SUNNY     90  67  46 W6        30.02F
HUNTINGBURG *+ SUNNY     90  68  48 W7        30.03S
WASHINGTON +   SUNNY     86  71  62 SW5       30.01F

$$

INZ062-063-066-070>080-084-089>092-230000-
SOUTH CENTRAL AND SOUTHEAST INDIANA

CITY           SKY/WX    TMP DP  RH WIND       PRES   REMARKS
BLOOMINGTON    SUNNY     85  69  58 SW6       30.03F

$$



USA.gov is the U.S. government's official web portal to all federal, state and local government web resources and services.